STARLINK-38167, 100257

Orbit data source: Space-Track

STARLINK-38167, 100257 is a payload satellite owned by SpaceX/Seattle (US) in SSO that was launched on Sat, 08 Aug 2026 UTC launched from the Air Force Western Test Range (AFWTR). Payload-class satellites include a variety of spacecraft equipped with specific instruments for various scientific and technological missions. These include communications satellites like Starlink; space stations such as the ISS; scientific satellites like the Hubble; Earth observation satellites from companies like Planet Labs, Umbra, and HawkEye 360; GPS; miniature CubeSats for education and research; and military/defense satellites.

Loading next visibility...
Identifier
100257, 2026-181M
Orbit
SSO
Country
Flag of USUS
Related business
Manufacturer
SpaceX/Seattle
Mission
Operational spacecraft
Bus & Motor
STARLINK V2MO, Unknown motor
Mass
575 kg wet, ~530 kg dry
Launch date (UTC)
2026-08-08 (1 month ago)
Launch vehicle
Unknown
Launch site
Air Force Western Test Range (AFWTR)
Object type
Payload
Rocket body
Debris
Shape & HBR
BOX + PAN, 17.7 m
Radar Cross Section
RCS unknown

Expand to show TLE details & history
Last TLE update: 6 hours ago

TLE from 6 hours ago
0 STARLINK-38167
1 A0257U 26181M   26249.62391026  .00281743  00000-0  18313-2 0  9997
2 A0257  97.2842 292.4977 0001343 101.8801 258.2615 15.75149462  5770
Epoch: 2026-09-06T14:58Z
TLE epoch observation values (Epoch: 2026-09-06T14:58:25.846Z)
Latitude
-0.00001°
Longitude
82.17365°
Altitude
347.558 km
Speed
7.7 km/s
True Right ascension
19h 29m 59s
True Declination
0° 00' 00"
Sunlit
Object was in full shadow at epoch
Visualization orbit readout
Latitude
Unknown
Longitude
Unknown
Altitude
Unknown
Speed
Unknown
Apparent Right ascension
Unknown
Apparent Declination
Unknown
Sunlit
N/A
Visualization observer readout
Local Sidereal Time
12:45:00
Azimuth
Unknown
Elevation
Unknown
Doppler factor
Unknown
Orbital elements
Apogee altitude
341.996 km
Perigee altitude
340.191 km
Semi-major axis
6,719.23 km
Eccentricity
0.00013
Inclination
97.2842°
RAAN
292.4977°
Arg. of periapsis
101.8801°
True anomaly
258.24643°
Mean anomaly
258.2615°
Eccentric anomaly
258.25397°
Mean motion
3.94061 °/min
Orbital period
91.36 mins
BSTAR
0.0018313
Loading maneuver chart data...
Computing Atmospheric mass density...
Loading historical data...
Loading historical data...
Loading historical data...
Loading historical data...
Loading historical data...
Loading historical data...
Loading historical data...

Documentation

Showing up to 5 results
|